Time,TemperatureF,DewpointF,PressureIn,WindDirection,WindDirectionDegrees,WindSpeedMPH,WindSpeedGustMPH,Humidity,HourlyPrecipIn,Conditions,Clouds,dailyrainin,SoftwareType,DateUTC
2013-02-17 00:02:00,28.9,16.0,29.83,North,360,9.0,16.0,60,0.00,,,0.00,weatherlink.com 1.10,2013-02-17 05:02:00,
2013-02-17 00:17:00,28.7,17.0,29.83,North,355,7.0,13.0,62,0.00,,,0.00,weatherlink.com 1.10,2013-02-17 05:17:00,
2013-02-17 00:32:00,28.4,17.0,29.82,North,360,9.0,14.0,63,0.00,,,0.00,weatherlink.com 1.10,2013-02-17 05:32:00,
2013-02-17 00:47:00,28.2,16.0,29.82,North,11,10.0,15.0,61,0.00,,,0.00,weatherlink.com 1.10,2013-02-17 05:47:00,
2013-02-17 01:02:00,28.2,17.0,29.82,NW,312,4.0,12.0,63,0.00,,,0.00,weatherlink.com 1.10,2013-02-17 06:02:00,
2013-02-17 01:17:00,28.1,16.0,29.82,NNW,329,8.0,10.0,62,0.00,,,0.00,weatherlink.com 1.10,2013-02-17 06:17:00,
2013-02-17 01:32:00,28.1,15.0,29.82,NW,319,7.0,9.0,58,0.00,,,0.00,weatherlink.com 1.10,2013-02-17 06:32:00,
2013-02-17 01:47:00,28.0,14.0,29.82,North,355,7.0,13.0,57,0.00,,,0.00,weatherlink.com 1.10,2013-02-17 06:47:00,
2013-02-17 02:02:00,27.9,14.0,29.82,NW,316,6.0,13.0,57,0.00,,,0.00,weatherlink.com 1.10,2013-02-17 07:02:00,
2013-02-17 02:17:00,27.6,15.0,29.82,NNW,331,9.0,13.0,59,0.00,,,0.00,weatherlink.com 1.10,2013-02-17 07:17:00,
2013-02-17 02:32:00,27.5,13.0,29.82,NNW,346,7.0,13.0,55,0.00,,,0.00,weatherlink.com 1.10,2013-02-17 07:32:00,
2013-02-17 02:47:00,27.4,13.0,29.82,NW,319,6.0,14.0,55,0.00,,,0.00,weatherlink.com 1.10,2013-02-17 07:47:00,
2013-02-17 03:02:00,27.2,13.0,29.82,North,5,4.0,12.0,56,0.00,,,0.00,weatherlink.com 1.10,2013-02-17 08:02:00,
2013-02-17 03:17:00,27.0,13.0,29.81,WNW,290,6.0,13.0,56,0.00,,,0.00,weatherlink.com 1.10,2013-02-17 08:17:00,
2013-02-17 03:32:00,26.8,13.0,29.81,NW,316,11.0,11.0,57,0.00,,,0.00,weatherlink.com 1.10,2013-02-17 08:32:00,
2013-02-17 03:47:00,26.6,13.0,29.82,NW,306,5.0,10.0,58,0.00,,,0.00,weatherlink.com 1.10,2013-02-17 08:47:00,
2013-02-17 04:03:00,26.4,13.0,29.82,NW,305,3.0,12.0,58,0.00,,,0.00,weatherlink.com 1.10,2013-02-17 09:03:00,
2013-02-17 04:18:00,26.1,14.0,29.82,NW,311,5.0,9.0,60,0.00,,,0.00,weatherlink.com 1.10,2013-02-17 09:18:00,
2013-02-17 04:33:00,25.6,14.0,29.82,NW,317,4.0,9.0,61,0.00,,,0.00,weatherlink.com 1.10,2013-02-17 09:33:00,
2013-02-17 04:48:00,25.4,14.0,29.82,NW,317,6.0,11.0,62,0.00,,,0.00,weatherlink.com 1.10,2013-02-17 09:48:00,
2013-02-17 05:03:00,25.1,14.0,29.82,WNW,296,9.0,11.0,63,0.00,,,0.00,weatherlink.com 1.10,2013-02-17 10:03:00,
2013-02-17 05:18:00,25.0,14.0,29.82,West,279,8.0,11.0,63,0.00,,,0.00,weatherlink.com 1.10,2013-02-17 10:18:00,
2013-02-17 05:33:00,24.8,14.0,29.83,WNW,292,3.0,12.0,63,0.00,,,0.00,weatherlink.com 1.10,2013-02-17 10:33:00,
2013-02-17 05:48:00,24.6,14.0,29.83,NW,306,4.0,12.0,64,0.00,,,0.00,weatherlink.com 1.10,2013-02-17 10:48:00,
2013-02-17 06:03:00,24.4,14.0,29.83,NNW,329,5.0,12.0,65,0.00,,,0.00,weatherlink.com 1.10,2013-02-17 11:03:00,
2013-02-17 06:18:00,24.4,14.0,29.83,WNW,289,2.0,15.0,65,0.00,,,0.00,weatherlink.com 1.10,2013-02-17 11:18:00,
2013-02-17 06:33:00,24.3,14.0,29.83,NW,317,7.0,15.0,64,0.00,,,0.00,weatherlink.com 1.10,2013-02-17 11:33:00,
2013-02-17 06:48:00,24.2,14.0,29.83,NW,314,5.0,11.0,66,0.00,,,0.00,weatherlink.com 1.10,2013-02-17 11:48:00,
2013-02-17 07:03:00,24.1,15.0,29.84,NW,313,6.0,16.0,67,0.00,,,0.00,weatherlink.com 1.10,2013-02-17 12:03:00,
2013-02-17 07:18:00,24.1,15.0,29.84,NNW,338,4.0,14.0,68,0.00,,,0.00,weatherlink.com 1.10,2013-02-17 12:18:00,
2013-02-17 07:33:00,24.3,15.0,29.84,NW,312,5.0,15.0,67,0.00,,,0.00,weatherlink.com 1.10,2013-02-17 12:33:00,
2013-02-17 07:48:00,24.6,15.0,29.85,WNW,287,8.0,14.0,67,0.00,,,0.00,weatherlink.com 1.10,2013-02-17 12:48:00,
2013-02-17 08:03:00,24.9,15.0,29.85,NNW,340,5.0,12.0,66,0.00,,,0.00,weatherlink.com 1.10,2013-02-17 13:03:00,
2013-02-17 08:18:00,25.0,14.0,29.85,NW,310,12.0,19.0,63,0.00,,,0.00,weatherlink.com 1.10,2013-02-17 13:18:00,
2013-02-17 08:33:00,25.2,13.0,29.86,WNW,297,12.0,22.0,59,0.00,,,0.00,weatherlink.com 1.10,2013-02-17 13:33:00,
2013-02-17 08:48:00,25.4,12.0,29.86,NW,306,7.0,18.0,57,0.00,,,0.00,weatherlink.com 1.10,2013-02-17 13:48:00,
2013-02-17 09:03:00,25.7,13.0,29.86,WNW,300,13.0,20.0,58,0.00,,,0.00,weatherlink.com 1.10,2013-02-17 14:03:00,
2013-02-17 09:18:00,25.7,12.0,29.86,NNW,327,11.0,21.0,56,0.00,,,0.00,weatherlink.com 1.10,2013-02-17 14:18:00,
2013-02-17 09:33:00,26.0,12.0,29.86,NNW,337,12.0,24.0,56,0.00,,,0.00,weatherlink.com 1.10,2013-02-17 14:33:00,
2013-02-17 09:48:00,26.4,12.0,29.87,NNW,339,6.0,21.0,55,0.00,,,0.00,weatherlink.com 1.10,2013-02-17 14:48:00,
2013-02-17 10:03:00,26.5,12.0,29.87,NW,318,9.0,25.0,55,0.00,,,0.00,weatherlink.com 1.10,2013-02-17 15:03:00,
2013-02-17 10:18:00,26.8,13.0,29.88,West,268,10.0,19.0,57,0.00,,,0.00,weatherlink.com 1.10,2013-02-17 15:18:00,
2013-02-17 10:33:00,26.9,12.0,29.88,NNW,338,8.0,18.0,54,0.00,,,0.00,weatherlink.com 1.10,2013-02-17 15:33:00,
2013-02-17 10:48:00,27.0,13.0,29.89,North,355,2.0,20.0,56,0.00,,,0.00,weatherlink.com 1.10,2013-02-17 15:48:00,
2013-02-17 11:03:00,27.0,11.0,29.89,NW,315,15.0,21.0,51,0.00,,,0.00,weatherlink.com 1.10,2013-02-17 16:03:00,
2013-02-17 11:18:00,26.8,12.0,29.89,NW,306,7.0,24.0,53,0.00,,,0.00,weatherlink.com 1.10,2013-02-17 16:18:00,
2013-02-17 11:33:00,27.0,12.0,29.89,NW,313,13.0,23.0,53,0.00,,,0.00,weatherlink.com 1.10,2013-02-17 16:33:00,
2013-02-17 11:48:00,27.9,12.0,29.89,NW,310,11.0,24.0,51,0.00,,,0.00,weatherlink.com 1.10,2013-02-17 16:48:00,
2013-02-17 12:03:00,27.0,12.0,29.89,NNW,331,15.0,22.0,54,0.00,,,0.00,weatherlink.com 1.10,2013-02-17 17:03:00,
2013-02-17 12:18:00,27.3,12.0,29.89,NW,309,7.0,22.0,52,0.00,,,0.00,weatherlink.com 1.10,2013-02-17 17:18:00,
2013-02-17 12:33:00,27.0,12.0,29.89,WNW,296,10.0,22.0,54,0.00,,,0.00,weatherlink.com 1.10,2013-02-17 17:33:00,
2013-02-17 12:48:00,28.0,13.0,29.89,WNW,302,10.0,21.0,54,0.00,,,0.00,weatherlink.com 1.10,2013-02-17 17:48:00,
2013-02-17 13:03:00,27.1,14.0,29.89,West,274,6.0,23.0,57,0.00,,,0.00,weatherlink.com 1.10,2013-02-17 18:03:00,
2013-02-17 13:18:00,28.0,12.0,29.89,NW,309,14.0,16.0,52,0.00,,,0.00,weatherlink.com 1.10,2013-02-17 18:18:00,
2013-02-17 13:33:00,26.6,14.0,29.89,WNW,299,13.0,23.0,60,0.00,,,0.00,weatherlink.com 1.10,2013-02-17 18:33:00,
2013-02-17 13:48:00,26.6,15.0,29.90,West,263,8.0,21.0,61,0.00,,,0.00,weatherlink.com 1.10,2013-02-17 18:48:00,
2013-02-17 14:04:00,24.7,18.0,29.89,West,267,7.0,17.0,76,0.00,,,0.00,weatherlink.com 1.10,2013-02-17 19:04:00,
2013-02-17 14:19:00,26.4,16.0,29.89,NW,317,4.0,16.0,64,0.00,,,0.00,weatherlink.com 1.10,2013-02-17 19:19:00,
2013-02-17 14:34:00,26.7,14.0,29.90,NNW,335,8.0,23.0,59,0.00,,,0.00,weatherlink.com 1.10,2013-02-17 19:34:00,
2013-02-17 14:49:00,26.4,17.0,29.90,WNW,294,5.0,16.0,67,0.00,,,0.00,weatherlink.com 1.10,2013-02-17 19:49:00,
2013-02-17 15:04:00,27.8,14.0,29.91,WNW,294,15.0,23.0,56,0.00,,,0.00,weatherlink.com 1.10,2013-02-17 20:04:00,
2013-02-17 15:19:00,28.6,12.0,29.90,NW,308,15.0,27.0,51,0.01,,,0.01,weatherlink.com 1.10,2013-02-17 20:19:00,
2013-02-17 15:34:00,28.7,12.0,29.90,West,267,15.0,26.0,49,0.01,,,0.01,weatherlink.com 1.10,2013-02-17 20:34:00,
2013-02-17 15:49:00,27.9,9.0,29.91,SW,226,7.0,29.0,46,0.01,,,0.01,weatherlink.com 1.10,2013-02-17 20:49:00,
2013-02-17 16:04:00,28.1,10.0,29.92,WNW,294,14.0,24.0,46,0.01,,,0.01,weatherlink.com 1.10,2013-02-17 21:04:00,
2013-02-17 16:19:00,28.1,9.0,29.92,NW,320,22.0,26.0,44,0.00,,,0.01,weatherlink.com 1.10,2013-02-17 21:19:00,
2013-02-17 16:34:00,28.3,5.0,29.92,NW,307,19.0,33.0,37,0.00,,,0.01,weatherlink.com 1.10,2013-02-17 21:34:00,
2013-02-17 16:49:00,27.5,6.0,29.93,NW,321,16.0,24.0,40,0.00,,,0.01,weatherlink.com 1.10,2013-02-17 21:49:00,
2013-02-17 17:04:00,27.3,6.0,29.94,NNW,331,11.0,24.0,41,0.00,,,0.01,weatherlink.com 1.10,2013-02-17 22:04:00,
2013-02-17 17:19:00,27.5,7.0,29.95,WNW,294,17.0,27.0,42,0.00,,,0.01,weatherlink.com 1.10,2013-02-17 22:19:00,
2013-02-17 17:34:00,26.9,6.0,29.96,NW,315,18.0,22.0,41,0.00,,,0.01,weatherlink.com 1.10,2013-02-17 22:34:00,
2013-02-17 17:49:00,26.3,6.0,29.97,West,265,10.0,24.0,42,0.00,,,0.01,weatherlink.com 1.10,2013-02-17 22:49:00,
2013-02-17 18:04:00,26.4,7.0,29.98,NW,308,13.0,22.0,44,0.00,,,0.01,weatherlink.com 1.10,2013-02-17 23:04:00,
2013-02-17 18:19:00,26.3,8.0,29.99,NW,321,20.0,21.0,46,0.00,,,0.01,weatherlink.com 1.10,2013-02-17 23:19:00,
2013-02-17 18:34:00,25.7,5.0,30.00,NNW,333,17.0,25.0,42,0.00,,,0.01,weatherlink.com 1.10,2013-02-17 23:34:00,
2013-02-17 18:49:00,25.6,9.0,30.01,NW,306,2.0,22.0,49,0.00,,,0.01,weatherlink.com 1.10,2013-02-17 23:49:00,
2013-02-17 19:04:00,25.3,6.0,30.02,NW,305,15.0,22.0,43,0.00,,,0.01,weatherlink.com 1.10,2013-02-18 00:04:00,
2013-02-17 19:19:00,25.2,7.0,30.02,West,267,7.0,18.0,45,0.00,,,0.01,weatherlink.com 1.10,2013-02-18 00:19:00,
2013-02-17 19:34:00,24.9,6.0,30.03,NW,320,18.0,25.0,45,0.00,,,0.01,weatherlink.com 1.10,2013-02-18 00:34:00,
2013-02-17 19:49:00,24.5,7.0,30.04,NW,312,14.0,21.0,47,0.00,,,0.01,weatherlink.com 1.10,2013-02-18 00:49:00,
2013-02-17 20:04:00,24.3,7.0,30.04,NW,322,7.0,24.0,47,0.00,,,0.01,weatherlink.com 1.10,2013-02-18 01:04:00,
2013-02-17 20:19:00,24.2,6.0,30.05,NW,319,9.0,24.0,45,0.00,,,0.01,weatherlink.com 1.10,2013-02-18 01:19:00,
2013-02-17 20:34:00,23.9,6.0,30.07,NW,308,3.0,31.0,46,0.00,,,0.01,weatherlink.com 1.10,2013-02-18 01:34:00,
2013-02-17 20:49:00,23.7,6.0,30.08,NNW,331,13.0,21.0,47,0.00,,,0.01,weatherlink.com 1.10,2013-02-18 01:49:00,
2013-02-17 21:04:00,23.6,5.0,30.09,NW,306,14.0,27.0,46,0.00,,,0.01,weatherlink.com 1.10,2013-02-18 02:04:00,
2013-02-17 21:19:00,23.5,5.0,30.10,NW,311,7.0,28.0,46,0.00,,,0.01,weatherlink.com 1.10,2013-02-18 02:19:00,
2013-02-17 21:35:00,23.3,7.0,30.10,WNW,294,5.0,19.0,49,0.00,,,0.01,weatherlink.com 1.10,2013-02-18 02:35:00,
2013-02-17 21:50:00,23.1,5.0,30.11,WNW,293,10.0,21.0,46,0.00,,,0.01,weatherlink.com 1.10,2013-02-18 02:50:00,
2013-02-17 22:05:00,22.7,5.0,30.12,NW,321,15.0,29.0,46,0.00,,,0.01,weatherlink.com 1.10,2013-02-18 03:05:00,
2013-02-17 22:20:00,22.4,5.0,30.12,WSW,257,8.0,18.0,48,0.00,,,0.01,weatherlink.com 1.10,2013-02-18 03:20:00,
2013-02-17 22:35:00,22.1,6.0,30.13,NNW,333,13.0,19.0,49,0.00,,,0.01,weatherlink.com 1.10,2013-02-18 03:35:00,
2013-02-17 22:50:00,21.9,5.0,30.13,NW,324,10.0,18.0,48,0.00,,,0.01,weatherlink.com 1.10,2013-02-18 03:50:00,
2013-02-17 23:05:00,21.6,4.0,30.14,NW,322,16.0,29.0,47,0.00,,,0.01,weatherlink.com 1.10,2013-02-18 04:05:00,
2013-02-17 23:20:00,21.5,5.0,30.14,NNW,344,9.0,21.0,49,0.00,,,0.01,weatherlink.com 1.10,2013-02-18 04:20:00,
2013-02-17 23:35:00,21.3,6.0,30.15,NNW,342,9.0,17.0,51,0.00,,,0.01,weatherlink.com 1.10,2013-02-18 04:35:00,
2013-02-17 23:50:00,21.3,6.0,30.15,NW,314,15.0,28.0,52,0.00,,,0.01,weatherlink.com 1.10,2013-02-18 04:50:00,